Temperature
30 32 32 32 32 33 32 32 32 32 31 31 31 30 30 28 27 27 27 26 25 24 23 22 21 21 20 20 20 20 19 19 19 19 19 18 18 18 18 18 18 18 18 18
31 31 32 32 32 32 32 32 32 31 30 31 31 30 30 29 28 27 27 26 25 24 23 22 21 21 21 21 20 20 20 19 19 19 19 19 18 18 18 18 18 18 18 18
31 31 31 31 31 31 32 32 32 31 31 31 31 31 30 29 28 27 27 26 26 25 24 22 22 22 21 21 20 20 20 19 19 19 19 18 18 18 18 18 18 18 18 18
31 31 30 31 31 31 31 32 31 31 31 31 31 31 31 30 29 28 27 26 26 25 24 23 22 22 21 21 20 20 20 20 19 19 19 18 18 18 18 18 18 18 18 18
30 30 30 30 31 31 32 31 31 31 31 31 31 31 32 30 30 29 28 27 26 25 24 23 23 22 21 21 20 20 20 20 19 19 19 19 18 18 18 18 18 18 18 18
30 30 31 31 31 31 31 31 31 31 32 30 31 31 31 32 31 30 29 27 26 25 24 23 22 22 21 21 20 20 20 20 19 19 19 19 18 18 18 18 18 18 18 17
29 30 30 31 30 30 31 31 30 30 30 30 30 30 31 31 31 30 29 28 26 25 24 23 22 21 21 21 20 20 20 20 19 19 19 19 19 18 18 18 18 18 17 17
29 29 30 31 31 31 31 31 30 29 30 31 30 30 32 31 29 29 28 28 26 25 24 23 23 22 21 21 20 20 20 20 19 19 19 19 19 18 18 18 18 17 17 17
30 30 30 30 31 31 31 31 32 31 31 30 31 31 32 31 30 29 28 27 26 25 24 24 23 22 21 21 20 20 19 19 19 19 19 19 18 18 18 18 18 17 17 17
30 29 30 30 30 30 31 32 31 31 29 29 30 30 31 31 30 30 29 28 26 25 25 24 23 22 21 21 20 20 19 19 19 19 19 18 18 18 18 18 17 17 17 17
30 29 29 29 29 30 30 30 31 31 31 30 30 31 32 31 31 30 29 27 26 26 25 24 23 22 21 21 20 20 19 19 19 19 18 18 18 18 18 17 17 17 17 17
29 29 29 30 30 31 31 31 30 30 29 30 30 31 31 31 31 30 29 27 26 25 24 23 22 21 21 20 20 19 19 19 19 18 18 18 18 18 17 17 17 17 17 17
28 28 28 28 29 29 30 31 31 31 31 30 30 31 30 30 30 29 28 26 24 23 23 22 22 21 20 20 20 19 19 19 19 18 18 18 18 18 17 17 17 17 17 16
28 28 28 29 29 30 29 29 30 31 30 30 30 31 31 31 30 28 27 25 24 23 22 22 21 21 20 20 20 19 19 19 19 18 18 18 18 17 17 17 17 17 16 16
27 28 28 29 30 30 30 30 30 30 31 31 31 31 31 30 30 28 26 25 24 22 22 21 21 20 20 20 19 19 19 19 18 18 18 17 17 17 17 17 17 16 16 15
26 27 28 28 29 29 29 30 30 30 31 31 31 31 31 29 28 26 25 25 24 23 22 21 20 20 20 20 19 19 19 18 18 18 18 17 17 17 16 16 16 16 15 15
26 26 27 28 28 28 28 29 30 30 30 31 30 31 30 29 27 26 24 24 23 22 21 21 20 20 20 20 19 19 19 18 18 18 17 17 16 16 16 16 15 15 15 15
25 25 27 28 27 26 29 30 30 30 30 30 30 30 29 28 26 25 24 24 23 22 21 21 20 20 19 19 19 19 18 18 18 17 17 16 16 16 16 15 15 15 15 14
24 25 26 27 27 27 28 28 29 29 29 29 29 29 28 26 26 25 23 23 23 22 21 21 20 20 19 19 19 19 18 18 17 17 16 16 16 16 15 15 15 15 14 14
23 24 26 26 26 26 28 28 27 28 28 27 27 27 26 26 28 27 23 22 22 21 20 20 20 19 19 19 19 18 18 17 17 17 16 16 16 15 15 15 15 14 14 13
24 24 25 26 26 27 27 26 26 27 27 25 25 25 24 26 26 24 22 21 21 20 20 20 19 19 19 19 18 18 18 17 17 16 16 16 16 15 15 15 14 14 13 13
25 25 25 26 26 26 24 25 26 25 23 23 23 23 23 23 22 21 21 20 20 20 19 19 19 19 19 18 18 18 18 17 17 16 16 15 15 15 14 14 14 13 13 13
24 24 25 25 25 22 22 22 21 20 21 21 22 22 21 21 21 20 20 20 19 19 19 19 19 18 18 18 18 17 17 17 17 16 16 15 15 14 14 14 13 13 13 12
22 21 22 22 22 21 20 20 19 19 20 20 20 20 20 20 20 20 19 19 19 18 18 18 18 18 18 18 17 17 17 17 17 16 15 15 15 14 14 13 13 12 12 12
21 21 22 21 21 20 19 19 19 19 19 19 20 20 20 20 19 19 19 18 18 18 18 18 18 18 18 18 17 17 17 16 16 16 15 14 14 14 13 13 13 12 12 12
20 21 21 21 20 20 19 18 18 19 19 19 19 19 19 19 18 18 18 18 18 18 18 18 18 17 17 17 17 17 16 16 16 15 15 14 14 13 13 13 12 12 12 12
Wind_Speed
6 9 10 9 7 3 4 4 3 3 3 6 6 5 8 11 12 12 12 12 11 11 10 9 9 9 9 8 9 9 8 7 6 5 5 4 4 3 3 4 4 4 4 5
9 11 8 6 6 6 7 6 4 4 2 4 4 5 6 10 12 11 11 12 12 11 10 10 9 9 9 9 9 9 9 8 7 5 4 3 3 3 3 2 2 3 4 4
13 7 7 8 9 9 8 6 4 3 4 5 5 6 7 9 10 10 11 11 11 12 12 11 11 10 10 9 9 8 7 7 7 6 4 3 3 3 2 2 2 3 4 4
10 7 8 10 11 10 9 4 4 5 6 3 4 3 6 8 10 11 12 12 12 12 12 12 11 10 9 9 8 7 7 7 6 6 5 5 4 3 3 2 2 2 3 4
10 10 11 12 10 10 5 3 5 6 6 5 5 6 3 7 8 10 11 12 12 12 11 11 11 10 9 8 8 8 7 6 6 6 6 5 4 3 2 2 1 2 2 3
7 7 9 9 7 6 6 7 5 7 8 8 4 6 2 3 4 6 9 12 12 12 11 10 10 9 9 8 8 7 7 6 6 6 5 5 4 3 3 2 2 2 1 1
10 11 9 8 10 10 10 10 8 8 8 6 3 6 2 2 1 3 7 10 12 12 12 11 11 11 10 10 9 8 8 7 6 6 5 5 4 4 4 3 3 2 1 1
14 14 13 12 13 11 14 14 11 8 7 5 5 5 1 3 2 3 6 9 11 12 12 12 11 11 10 10 10 9 8 7 6 6 5 4 4 3 3 2 2 1 1 1
12 12 11 10 10 11 14 14 12 10 8 8 5 4 3 4 5 6 7 9 11 12 12 12 12 11 11 10 10 9 8 7 6 5 4 3 3 2 1 1 1 1 0 0
8 10 11 10 9 6 9 11 9 11 9 10 8 8 5 6 6 7 8 9 11 12 12 12 11 11 10 10 9 9 8 7 6 5 4 3 3 2 1 1 1 2 2 2
11 10 11 12 14 15 10 12 10 10 10 10 8 5 1 3 5 7 8 9 10 11 12 12 11 11 11 10 10 9 8 7 6 5 4 4 3 3 3 3 3 3 3 3
12 10 12 14 8 7 14 14 14 12 10 10 10 4 6 2 4 6 8 9 10 10 11 11 11 11 11 10 10 9 8 7 6 6 5 5 4 4 4 4 4 4 4 4
11 9 11 11 11 10 13 14 15 14 11 11 12 6 6 4 4 6 8 10 10 11 11 11 11 11 11 10 10 9 9 8 8 7 7 6 6 5 5 5 5 5 4 4
9 11 14 15 13 15 15 14 15 15 12 12 13 9 5 5 5 6 9 10 11 11 12 12 11 11 11 10 10 9 9 9 8 8 8 7 6 6 6 6 5 5 5 5
9 12 14 11 7 11 15 16 17 17 15 13 11 10 7 5 4 6 9 11 12 12 12 12 12 12 11 11 10 9 9 9 9 8 8 7 7 6 6 6 6 6 6 6
8 10 12 12 10 11 13 15 16 16 14 13 11 9 4 3 4 7 10 12 13 13 13 13 13 12 12 11 11 10 9 9 9 8 8 7 7 6 6 6 7 7 7 7
10 9 12 13 12 12 15 15 16 15 13 13 13 8 4 4 6 8 10 12 12 13 13 13 13 12 12 11 11 11 10 10 9 9 8 8 7 7 7 7 7 7 7 7
9 11 10 11 11 15 9 6 11 13 12 11 8 4 4 4 4 5 7 10 11 12 13 13 13 13 12 12 12 11 11 10 10 9 8 8 7 7 7 7 7 7 7 7
10 10 10 11 15 13 7 6 8 11 10 7 8 5 3 3 6 5 5 8 10 11 12 12 12 13 13 13 12 12 11 10 10 9 9 8 7 7 7 7 7 7 7 7
9 9 11 11 14 15 9 7 5 7 9 3 4 5 4 6 7 5 6 7 9 10 10 11 12 13 13 13 12 12 11 10 10 9 9 8 8 8 8 7 7 7 7 7
12 11 14 14 13 9 3 5 7 10 5 2 1 3 5 5 2 3 8 8 9 10 11 12 12 12 12 12 12 11 11 10 9 9 9 8 8 8 8 8 7 7 7 7
11 12 13 13 14 9 3 5 5 0 3 1 1 1 3 2 3 6 8 9 10 11 12 12 11 11 11 11 11 11 10 10 10 10 9 8 8 8 8 8 8 7 7 7
6 4 5 5 3 4 3 2 3 2 1 1 1 1 2 4 5 7 8 9 10 11 11 11 11 11 10 10 10 11 10 11 11 10 9 9 8 7 8 8 8 7 6 5
3 0 2 2 2 3 3 3 3 2 2 2 1 1 3 5 6 7 8 9 9 10 10 10 11 11 10 10 9 9 11 11 11 10 10 9 9 8 7 6 6 5 5 5
2 3 3 3 2 3 3 2 2 2 2 2 3 3 4 6 6 7 7 8 8 9 9 9 9 10 10 10 9 9 10 11 11 10 9 9 8 8 7 5 3 3 3 2
3 3 4 2 2 2 2 1 1 2 2 3 3 4 4 5 5 6 6 7 8 9 9 9 9 10 10 10 9 9 9 10 11 10 9 8 8 7 7 7 6 10 7 8
Wind_Direction
197 211 207 200 215 230 203 211 185 135 155 211 219 201 177 183 196 197 195 194 196 196 190 188 191 196 197 201 201 203 203 197 201 207 215 215 217 225 232 234 236 239 239 230
201 210 201 189 197 208 209 214 184 146 159 226 226 216 188 191 201 205 203 200 199 193 187 186 190 193 196 198 200 200 202 199 201 204 217 230 237 228 228 246 233 238 230 235
212 182 166 188 191 202 207 221 210 173 170 205 240 207 193 193 202 207 210 207 202 198 193 190 192 192 191 194 198 199 196 194 201 201 204 208 211 230 224 232 232 239 230 229
213 176 185 199 199 207 205 211 217 196 219 203 243 250 176 190 199 205 208 207 204 197 194 191 190 189 190 191 190 189 186 192 195 200 209 215 223 233 235 237 234 239 227 236
196 187 195 203 199 215 202 169 202 212 235 247 229 272 160 180 206 207 205 203 199 192 189 188 187 184 184 183 182 181 181 188 191 199 203 214 228 229 224 220 220 249 239 239
197 192 209 205 189 198 154 163 181 218 237 242 236 266 234 173 200 198 195 195 192 185 180 178 177 173 176 176 177 174 172 181 189 194 200 211 224 228 231 226 218 222 225 238
198 200 199 200 186 183 199 206 212 219 226 233 177 251 272 85 159 196 184 183 182 181 176 173 172 171 172 174 173 172 169 176 183 187 195 205 214 215 224 238 220 239 246 234
199 198 195 199 209 203 211 222 230 238 237 219 187 242 211 115 136 172 177 171 171 175 175 174 172 171 173 174 173 172 169 173 176 181 189 199 211 218 215 221 250 237 260 274
206 201 180 197 212 219 208 223 239 244 253 253 226 223 217 166 165 159 164 166 168 172 172 172 169 169 169 171 171 171 168 169 171 172 172 180 196 211 213 196 222 218 249 295
215 203 185 180 187 212 236 218 221 236 238 244 234 233 231 181 175 164 166 166 165 168 170 169 166 167 165 163 160 161 164 162 160 162 166 162 159 158 166 155 91 64 58 43
217 209 188 190 205 198 194 207 219 229 240 246 244 227 160 194 184 178 169 166 165 167 168 167 164 162 159 156 153 154 154 151 151 151 149 140 134 129 122 103 94 86 74 71
210 216 205 202 199 232 214 213 209 218 223 239 258 229 108 156 179 169 161 159 160 160 161 159 157 155 155 155 152 151 151 149 147 141 135 129 122 117 109 97 90 91 86 78
191 208 202 198 200 204 216 218 218 226 225 230 241 228 128 152 162 158 156 155 156 157 155 153 154 155 155 153 150 148 150 147 143 136 131 124 119 110 101 93 89 89 89 80
204 215 223 219 211 196 204 208 216 222 226 229 237 246 188 183 173 168 163 160 159 160 158 157 156 155 152 149 150 149 148 145 142 138 132 126 120 113 107 99 92 91 91 84
209 217 226 242 239 212 211 208 210 221 233 239 236 241 239 216 198 177 170 166 163 164 164 163 161 155 154 152 152 151 148 146 143 139 131 126 121 117 113 106 99 94 89 86
212 220 215 223 222 221 222 216 213 221 230 237 244 239 227 188 170 173 175 174 173 172 169 166 162 159 160 158 158 156 153 148 145 140 132 128 127 120 113 107 102 96 89 85
200 210 213 218 211 216 221 218 214 217 224 231 235 236 192 191 191 190 184 183 181 175 171 168 164 163 163 161 158 156 153 149 145 138 134 134 132 123 115 112 106 100 96 92
209 212 215 216 203 222 218 208 218 219 222 229 241 233 208 210 191 182 186 184 179 174 170 167 164 161 160 156 154 151 149 148 144 140 139 137 133 127 122 116 107 101 98 96
210 210 217 217 215 218 194 185 204 211 219 226 234 231 203 166 170 168 176 183 177 171 166 163 162 158 154 154 153 151 150 148 147 145 145 142 137 133 130 123 117 112 108 103
190 213 219 219 224 222 201 173 192 214 215 190 220 217 198 186 212 180 161 165 159 156 156 155 152 151 152 153 153 154 152 152 150 147 144 143 140 138 133 128 123 119 115 112
187 200 216 219 224 223 153 154 180 213 203 112 203 212 206 212 275 130 152 154 151 150 150 151 150 151 152 153 156 157 154 152 147 143 141 141 137 135 134 131 127 128 125 117
201 202 209 218 225 213 113 173 202 1 34 60 241 222 206 189 124 135 144 146 147 147 148 152 151 149 150 155 160 159 154 147 143 142 141 141 141 141 138 135 132 132 132 130
219 235 221 225 220 73 94 93 39 13 351 338 310 292 183 157 144 140 141 142 144 145 148 151 149 146 148 157 164 160 152 148 147 147 146 144 143 140 141 142 141 144 152 150
177 215 227 203 138 100 103 83 45 17 1 358 7 130 155 152 144 140 139 140 143 145 147 149 150 151 153 157 159 154 151 152 152 150 147 147 147 144 142 147 151 153 155 155
212 202 210 207 157 135 131 64 37 37 38 56 81 112 138 146 147 144 142 141 142 143 146 151 154 155 154 152 150 150 153 155 154 152 152 153 152 147 143 131 102 126 102 91
224 234 236 216 159 206 148 49 45 69 65 70 87 99 114 134 142 144 141 140 144 146 150 155 157 156 153 150 149 152 158 161 159 157 160 160 156 153 151 140 120 57 65 66
Height
1513 1511 1510 1509 1509 1509 1511 1514 1517 1517 1517 1519 1521 1522 1525 1531 1534 1536 1539 1542 1545 1548 1551 1553 1554 1556 1557 1558 1560 1561 1562 1563 1564 1565 1565 1566 1567 1567 1567 1567 1567 1567 1567 1568
1512 1511 1508 1509 1511 1511 1513 1516 1517 1518 1518 1519 1520 1521 1522 1527 1530 1533 1535 1539 1542 1545 1548 1550 1552 1554 1555 1556 1558 1559 1560 1561 1562 1563 1564 1564 1565 1565 1566 1566 1565 1565 1566 1566
1509 1508 1511 1512 1513 1514 1514 1515 1516 1518 1519 1518 1519 1521 1521 1523 1528 1531 1533 1536 1539 1542 1545 1547 1549 1551 1552 1554 1556 1557 1558 1559 1560 1561 1562 1563 1563 1564 1564 1564 1564 1564 1564 1565
1507 1509 1512 1512 1512 1512 1517 1512 1514 1517 1520 1518 1519 1524 1518 1518 1522 1526 1529 1532 1535 1538 1541 1544 1547 1549 1550 1552 1554 1555 1556 1557 1558 1559 1560 1561 1562 1562 1562 1562 1563 1563 1563 1563
1507 1509 1511 1512 1510 1511 1511 1513 1514 1516 1517 1518 1518 1521 1515 1514 1518 1520 1524 1527 1531 1535 1538 1541 1544 1546 1549 1551 1552 1553 1554 1555 1556 1557 1558 1559 1560 1561 1561 1561 1561 1561 1562 1562
1505 1509 1508 1507 1509 1511 1513 1515 1516 1515 1515 1529 1521 1524 1519 1509 1513 1514 1519 1524 1528 1532 1536 1539 1542 1544 1547 1549 1551 1552 1553 1554 1554 1555 1557 1557 1558 1559 1559 1560 1560 1560 1560 1560
1510 1508 1507 1508 1510 1513 1513 1518 1528 1531 1530 1527 1518 1522 1516 1508 1510 1513 1516 1520 1525 1530 1533 1537 1540 1542 1545 1547 1549 1550 1551 1552 1553 1554 1555 1556 1556 1557 1557 1558 1558 1558 1559 1559
1510 1511 1504 1505 1505 1508 1509 1510 1525 1536 1532 1521 1521 1520 1508 1507 1511 1514 1516 1519 1523 1527 1531 1535 1537 1540 1543 1545 1547 1548 1550 1551 1552 1553 1553 1554 1555 1555 1556 1556 1557 1557 1557 1557
1500 1504 1500 1502 1503 1503 1508 1507 1501 1511 1518 1523 1516 1512 1505 1506 1509 1513 1515 1518 1521 1525 1529 1533 1536 1538 1541 1543 1545 1547 1548 1549 1551 1552 1552 1553 1553 1553 1554 1554 1555 1555 1555 1555
1493 1502 1499 1502 1504 1505 1501 1500 1508 1513 1530 1532 1522 1517 1509 1505 1506 1509 1513 1516 1520 1524 1528 1531 1534 1537 1540 1542 1544 1546 1547 1548 1550 1551 1551 1552 1552 1552 1552 1553 1553 1553 1554 1554
1492 1501 1501 1501 1503 1502 1507 1507 1506 1508 1510 1525 1528 1516 1496 1500 1503 1506 1511 1515 1519 1522 1526 1529 1533 1536 1538 1541 1543 1545 1546 1547 1549 1550 1550 1551 1551 1551 1552 1552 1552 1552 1552 1552
1492 1494 1499 1498 1495 1494 1495 1498 1504 1515 1518 1515 1515 1511 1497 1499 1502 1506 1510 1515 1518 1522 1525 1529 1532 1534 1537 1540 1542 1544 1546 1547 1548 1550 1550 1550 1551 1551 1551 1552 1552 1552 1552 1552
1493 1497 1507 1507 1505 1501 1498 1496 1495 1498 1503 1511 1516 1509 1498 1501 1503 1506 1510 1514 1518 1522 1525 1528 1531 1534 1536 1539 1542 1544 1545 1547 1548 1549 1550 1550 1551 1551 1551 1551 1552 1552 1551 1551
1492 1493 1497 1500 1494 1491 1498 1498 1496 1497 1506 1508 1507 1500 1497 1498 1502 1506 1510 1514 1517 1521 1523 1526 1530 1533 1535 1538 1540 1543 1545 1546 1548 1549 1550 1550 1551 1551 1551 1551 1551 1551 1551 1551
1491 1493 1490 1486 1483 1484 1489 1492 1494 1496 1494 1499 1498 1497 1494 1497 1501 1505 1509 1512 1516 1519 1522 1525 1528 1531 1534 1537 1539 1541 1544 1545 1547 1548 1550 1551 1551 1551 1552 1552 1551 1551 1551 1552
1491 1490 1491 1492 1487 1487 1489 1487 1490 1492 1491 1492 1493 1494 1492 1497 1501 1505 1508 1510 1514 1517 1520 1523 1526 1529 1532 1535 1538 1540 1542 1544 1546 1548 1549 1550 1551 1552 1552 1552 1552 1552 1551 1552
1488 1492 1494 1492 1487 1490 1495 1486 1487 1489 1488 1489 1493 1491 1493 1497 1501 1503 1506 1508 1511 1514 1518 1521 1524 1527 1530 1533 1536 1539 1542 1544 1545 1547 1549 1550 1551 1552 1552 1553 1552 1552 1552 1552
1489 1491 1489 1488 1495 1507 1486 1480 1481 1485 1486 1486 1487 1489 1493 1496 1500 1502 1505 1507 1510 1513 1516 1519 1522 1525 1529 1532 1535 1537 1540 1543 1545 1546 1548 1550 1551 1552 1552 1552 1553 1553 1553 1553
1489 1490 1487 1487 1493 1491 1485 1483 1483 1486 1488 1487 1488 1491 1494 1497 1499 1501 1504 1506 1508 1511 1514 1517 1521 1524 1527 1530 1533 1536 1539 1541 1544 1546 1548 1549 1550 1551 1552 1552 1552 1553 1553 1553
1489 1488 1487 1487 1493 1495 1483 1481 1485 1487 1491 1489 1490 1492 1494 1496 1493 1496 1502 1505 1507 1510 1513 1517 1520 1523 1526 1529 1532 1535 1538 1540 1543 1545 1547 1548 1549 1550 1551 1552 1552 1553 1554 1554
1486 1488 1485 1486 1488 1479 1480 1483 1487 1494 1491 1490 1491 1493 1494 1495 1495 1498 1500 1504 1506 1509 1512 1515 1519 1522 1525 1528 1531 1535 1537 1539 1542 1543 1545 1547 1547 1549 1550 1551 1552 1553 1554 1554
1478 1479 1484 1482 1487 1485 1484 1484 1485 1488 1491 1491 1492 1493 1494 1496 1497 1498 1500 1502 1505 1508 1511 1514 1518 1521 1524 1527 1530 1533 1535 1538 1540 1542 1544 1546 1547 1548 1549 1550 1551 1553 1554 1555
1476 1478 1474 1478 1482 1486 1487 1488 1490 1491 1491 1492 1492 1493 1494 1496 1497 1498 1500 1502 1505 1508 1511 1514 1517 1519 1523 1526 1529 1532 1534 1536 1538 1540 1542 1544 1545 1547 1548 1549 1551 1552 1553 1555
1482 1485 1482 1483 1484 1488 1489 1490 1491 1492 1492 1492 1492 1493 1494 1496 1497 1499 1500 1502 1505 1507 1510 1512 1515 1518 1521 1525 1528 1530 1532 1535 1537 1539 1541 1542 1544 1545 1547 1549 1551 1552 1553 1555
1483 1483 1482 1484 1487 1489 1490 1491 1492 1492 1492 1492 1492 1493 1494 1496 1498 1499 1500 1503 1505 1507 1509 1512 1515 1518 1520 1523 1526 1528 1531 1533 1535 1537 1539 1541 1543 1544 1545 1547 1549 1551 1552 1554
1484 1485 1484 1483 1488 1488 1491 1492 1492 1492 1492 1493 1493 1494 1495 1496 1498 1499 1501 1502 1504 1506 1508 1511 1513 1516 1519 1521 1523 1527 1529 1532 1534 1536 1537 1540 1541 1543 1544 1545 1547 1548 1550 1552